Weather in Capri

Italy     40°33′04″N   14°14′24″E
temp.,
°C
wind,
m/s
gust,
m/s
humid.,
%
clouds,
%
prec.,
mm/h
press.,
hPa
HPBL,
m
24 july, sat
sat2423:00+26wnw45770 0.0 1015266
02:00+26wnw34750 0.0 1015365
05:00+25wnw23730 0.0 1014325
08:00+25se11720 0.0 1015230
11:00+25sw12710 0.0 1015265
14:00+27w44650 0.0 1015426
17:00+27w44650 0.0 1014360
20:00+26wnw45711 0.0 1014132
25 july, sun
sun2523:00+26s22702 0.0 101417
02:00+26se22710 0.0 101333
05:00+26ese33745 0.0 1013139
08:00+26ese44765 0.0 1014226
11:00+26sse11702 0.0 1015126
14:00+27sse56710 0.0 1013235
17:00+27wnw116897 0.0 101464
20:00+28s336497 0.0 101332
26 july, mon
mon2623:00+27n017246 0.0 101411
02:00+27nnw11703 0.0 101411
05:00+27ese336336 0.0 101325
08:00+26e1164100 0.0 101518
11:00+27sse2259100 0.0 101518
14:00+29n115897 0.0 101514
17:00+30nnw4552100 0.0 101567
20:00+28nw67615 0.0 101562
27 july, tue
tue2723:00+27nnw5668100 0.0 101554
02:00+28nnw456594 0.0 101642
05:00+27nnw576475 0.0 101577
08:00+27ne22590 0.0 101513
11:00+28nw34571 0.0 101741
14:00+28w33585 0.0 101729
17:00+29wnw4559100 0.0 101652
20:00+28nw445990 0.0 101529
28 july, wed
wed2823:00+27nw55670 0.0 101657
02:00+27nnw33670 0.0 101618
05:00+27ene11650 0.0 101412
08:00+27nw33570 0.0 101625
11:00+28wnw33530 0.0 101626
14:00+28w44560 0.0 101638
17:00+29w44590 0.0 101545
20:00+28nw56670 0.0 101566